Wind_Speed
53 54 54 54 54 54 54 54 54 54 52 51 51 51 51 50 49 49 48 48 48 47 46 46 45 44 45 46 46 47 47 46 46 45 44 43 45 48 51 53 55 57 59 61 62 63 64 63 63 63 65 67 68 68 68 68 65 61 60 59 58 58 58 58 59 59 58 57 58 59 61 63 61 59 59 60 60 59 59 58 59 60 61 61 60 59 59
56 56 56 56 56 56 56 56 56 56 55 53 53 53 53 53 52 51 50 49 49 48 48 48 47 47 48 48 47 48 47 47 47 46 45 46 45 44 46 47 45 47 52 57 60 63 64 63 63 64 65 67 69 70 70 69 67 64 62 61 61 62 62 60 60 59 59 59 61 62 64 63 60 58 59 60 59 58 58 59 60 60 62 63 62 61 61
58 58 58 58 58 58 58 57 57 58 57 56 55 55 55 55 54 53 51 50 50 50 50 50 49 50 50 50 49 49 49 49 49 48 48 48 46 44 44 42 40 42 47 50 54 57 60 62 64 65 67 69 70 70 71 70 68 66 64 63 62 63 62 60 59 59 58 60 62 63 63 60 57 58 59 59 60 59 58 60 62 62 63 62 61 61 60
58 58 58 57 57 57 57 57 57 58 58 57 56 56 56 57 55 53 52 52 53 54 53 52 51 51 51 51 51 50 50 51 50 50 51 50 47 46 45 42 42 43 44 46 47 50 52 55 58 62 65 69 70 69 70 69 67 67 66 64 62 63 62 60 59 59 58 60 62 63 62 60 58 59 59 59 59 58 58 60 61 61 61 59 59 60 60
55 55 54 54 54 54 54 54 54 55 56 55 55 55 56 56 55 54 54 55 56 56 55 53 53 52 52 52 52 52 52 53 53 53 52 50 50 49 46 44 44 44 44 45 45 45 46 48 51 53 58 64 65 62 63 64 63 64 65 62 61 62 63 62 60 59 59 60 61 63 63 61 59 60 60 60 59 58 59 61 61 62 62 60 61 62 61
51 51 50 50 50 50 50 50 50 51 53 53 53 53 54 54 54 55 56 56 56 56 56 55 55 54 53 53 54 54 55 55 55 55 53 52 52 50 46 44 46 47 46 45 45 44 43 44 46 46 49 56 55 53 55 56 57 60 62 61 61 61 61 62 60 59 59 59 60 62 63 62 61 60 60 60 60 61 63 62 62 64 64 62 63 63 63
47 46 46 46 46 46 46 47 47 48 50 51 51 52 52 51 52 55 56 56 56 56 57 58 57 56 55 55 55 55 54 56 57 57 56 54 52 50 48 45 46 47 47 45 45 44 41 42 43 43 47 51 50 49 50 50 51 55 58 60 60 59 60 60 59 59 59 59 60 62 63 64 62 61 61 62 64 65 65 64 64 65 65 64 65 66 66
42 41 40 40 41 42 43 43 44 45 47 48 49 51 51 50 51 53 55 56 56 56 58 60 60 57 56 55 55 55 55 57 58 58 57 55 52 51 48 44 45 48 48 47 47 44 42 42 44 45 48 51 50 50 49 46 45 49 54 56 56 57 59 58 56 58 58 59 60 61 62 62 60 59 61 63 64 64 65 66 66 67 68 67 67 69 70
38 37 36 35 35 36 38 40 40 41 43 45 47 49 50 50 51 52 54 55 56 57 59 59 58 57 55 55 57 57 57 58 58 58 58 56 52 50 47 44 47 50 50 49 48 46 44 45 47 49 51 53 51 50 48 45 43 45 50 51 51 54 57 55 53 55 55 56 58 59 59 57 55 57 60 61 61 63 65 66 66 67 68 67 67 70 71
34 34 33 32 31 31 33 35 36 38 39 41 44 46 48 49 50 52 53 53 54 55 57 57 57 57 57 57 58 58 58 57 57 58 59 56 52 50 49 49 52 53 52 51 51 49 48 49 50 53 55 55 53 50 49 48 46 46 48 48 48 51 53 54 53 52 51 52 54 54 54 52 53 56 59 58 59 61 63 64 64 65 65 64 65 67 68
32 31 30 29 28 28 28 29 31 33 35 36 39 42 45 47 49 50 51 51 52 53 54 56 57 58 57 57 58 59 58 56 57 59 60 58 55 54 53 54 56 55 54 54 53 53 53 53 54 56 56 56 55 52 51 50 50 50 49 48 48 48 51 54 54 50 48 49 50 51 51 50 52 56 56 55 56 57 60 62 63 64 63 62 63 65 65
31 30 28 27 26 26 26 26 26 28 30 32 34 37 41 44 46 48 49 50 52 52 52 55 56 56 57 58 58 59 58 57 57 59 60 60 59 57 55 56 58 56 55 56 56 56 56 55 56 56 57 56 55 54 54 53 53 53 53 52 51 50 52 55 53 49 47 48 50 51 50 51 54 55 54 54 54 54 58 62 62 62 62 62 62 62 61
31 30 28 26 25 24 24 23 23 24 26 28 30 32 35 39 42 44 46 48 51 51 51 53 55 56 57 58 58 58 58 57 57 59 60 61 61 59 56 55 57 57 58 59 60 58 57 56 56 57 57 58 57 57 57 56 56 56 56 57 55 54 56 56 52 49 48 48 50 51 51 53 56 54 53 55 56 55 57 61 62 61 61 62 62 61 58
31 30 28 26 23 22 22 21 21 21 22 23 26 28 30 33 36 39 42 45 48 49 50 51 53 54 55 56 57 57 57 57 57 59 60 61 61 60 57 55 56 59 60 61 62 60 59 58 58 58 59 60 59 59 59 59 59 59 60 60 59 58 59 57 54 52 51 51 53 53 53 56 57 56 54 55 57 58 58 60 61 60 60 62 62 61 59
29 29 28 26 24 21 20 20 19 19 19 20 21 24 26 28 31 34 37 41 45 46 48 50 52 53 54 55 56 57 57 58 58 59 60 60 61 61 57 54 56 59 60 62 63 62 61 60 60 60 61 62 62 62 62 62 62 62 63 63 62 62 61 59 57 55 54 55 56 56 57 59 59 58 58 57 59 61 61 62 63 61 60 63 63 63 62
29 29 28 27 25 22 20 18 18 18 18 18 18 20 22 24 26 29 32 36 39 42 45 47 49 51 53 54 55 56 57 57 58 60 60 60 61 60 57 56 57 59 60 62 63 63 62 61 61 61 62 63 64 64 64 64 65 65 65 64 66 66 64 61 60 60 59 59 59 59 60 61 61 61 62 62 63 64 64 64 65 63 62 64 65 65 65
27 28 28 28 26 24 21 18 17 16 16 16 16 17 18 20 22 24 27 30 33 37 40 43 46 48 50 52 53 55 56 57 58 59 59 59 60 60 59 59 60 60 60 62 62 62 62 62 62 62 62 64 65 65 65 65 66 67 66 66 68 69 67 65 64 64 63 62 62 62 63 64 64 65 66 65 65 66 66 67 66 64 64 65 66 68 69
27 27 27 27 27 26 24 21 18 16 15 15 15 15 16 16 18 20 23 26 28 31 34 37 41 44 46 49 51 52 53 55 57 58 58 58 60 61 62 61 60 60 61 61 61 62 62 63 63 63 63 65 65 65 65 66 67 69 68 68 70 70 70 69 68 67 67 66 66 66 67 68 68 68 69 68 67 68 69 69 67 66 68 68 68 69 72
27 27 27 27 27 26 26 24 22 19 16 15 14 14 15 15 16 16 18 21 23 26 29 32 35 38 41 44 46 48 50 52 54 55 56 57 59 61 62 61 60 60 62 63 63 63 64 64 64 64 64 65 65 66 67 68 69 70 70 70 70 71 71 71 71 70 70 69 69 70 71 72 71 71 71 70 70 71 72 71 70 71 71 71 71 72 74
27 27 27 27 27 27 26 26 25 23 21 18 16 14 14 14 14 15 16 17 19 21 23 26 29 32 35 38 41 43 45 47 49 51 53 55 56 58 60 60 60 61 64 65 65 65 65 66 65 65 65 66 66 68 68 69 70 70 70 71 71 72 72 72 72 71 71 72 73 73 75 75 74 73 73 72 72 73 74 73 73 74 74 74 75 77 77
29 29 28 28 28 27 27 26 26 25 24 22 20 17 15 14 14 14 14 15 16 17 19 21 23 26 29 32 35 38 40 42 44 46 48 50 52 55 57 58 59 62 65 66 66 65 67 67 66 66 67 68 69 70 70 70 70 71 71 72 73 73 73 72 72 71 71 74 76 77 77 77 76 74 74 74 74 75 75 75 75 76 77 77 78 80 81
31 31 31 30 30 29 28 27 26 25 25 24 22 21 19 17 15 14 14 14 14 15 16 18 19 21 23 25 28 31 33 35 38 40 42 44 47 50 52 54 56 59 62 64 64 65 67 67 67 67 69 70 70 71 71 72 73 73 73 73 74 74 73 73 74 73 74 76 79 78 77 77 77 76 76 77 77 77 76 77 78 78 79 79 80 81 82
31 32 32 32 32 32 31 30 28 27 26 25 24 23 21 20 18 17 16 15 14 15 15 16 17 18 20 22 23 25 27 29 31 33 36 38 41 44 46 48 51 54 56 59 60 62 64 66 66 68 69 69 70 71 72 73 74 74 74 75 75 75 74 75 76 77 77 78 80 78 77 77 78 79 80 79 79 78 78 79 80 80 80 80 81 81 81
31 31 32 32 33 33 32 32 31 29 28 26 25 24 22 21 20 19 18 17 16 15 15 15 16 17 18 20 21 22 24 25 26 28 29 32 34 37 39 42 45 48 51 53 55 57 60 61 63 65 66 67 69 71 72 73 73 74 75 76 75 76 76 77 77 77 78 80 80 79 78 79 80 80 80 79 78 78 78 79 79 79 80 80 81 82 82
31 31 32 32 32 33 33 33 32 32 31 29 27 25 24 23 21 20 19 18 17 17 16 16 15 16 17 18 19 21 22 23 24 25 26 27 29 31 33 35 39 41 44 46 49 51 54 55 57 60 61 63 66 68 68 70 71 72 74 75 74 74 76 76 76 77 78 80 79 78 78 80 80 80 79 78 77 76 76 75 75 76 77 78 78 79 80
31 32 32 32 33 33 33 33 33 33 33 32 31 29 27 25 23 22 21 20 20 19 18 17 16 16 16 16 17 19 20 21 22 23 25 26 27 28 29 30 33 35 37 39 42 44 47 49 51 53 55 58 60 61 62 65 67 68 70 71 71 70 72 73 75 76 78 78 76 76 77 78 77 77 76 75 73 73 72 72 71 71 72 72 73 73 74
33 33 34 34 34 34 34 33 33 33 34 33 33 31 30 28 27 25 24 22 20 20 19 18 18 17 17 16 17 18 18 19 20 21 23 24 25 27 28 28 29 31 33 34 36 38 40 42 44 46 49 51 53 54 56 59 61 62 64 65 65 66 67 69 70 72 72 72 72 72 74 74 74 73 72 70 70 69 68 68 68 67 66 66 66 67 67
36 36 36 36 36 36 36 36 35 34 34 34 33 33 32 31 30 28 26 24 22 21 20 19 18 18 18 17 17 17 17 18 19 20 20 22 23 24 26 27 28 29 30 32 32 33 34 36 38 39 41 43 45 47 49 51 52 54 56 57 58 60 62 62 63 63 64 65 65 66 67 68 68 68 67 66 65 64 64 64 63 63 63 63 62 61 61
37 38 38 38 39 39 38 38 38 37 36 35 34 33 33 32 31 30 29 27 26 24 23 21 20 19 18 18 18 17 17 17 18 18 19 20 21 22 23 25 26 27 28 29 30 31 32 33 34 35 36 37 38 40 41 43 44 44 46 49 51 53 53 53 54 55 56 56 57 57 58 59 60 61 62 61 61 60 60 60 60 60 60 60 59 58 58
38 38 39 39 40 40 40 40 40 39 39 38 37 36 35 35 34 33 32 31 29 27 25 23 22 20 20 19 18 18 18 17 17 17 18 19 20 21 22 23 24 25 26 27 28 29 30 31 32 33 34 35 36 37 38 39 38 38 40 43 45 46 47 47 47 49 50 50 51 52 53 53 54 56 57 58 58 58 58 58 58 58 58 57 56 56 56
38 39 40 40 40 41 41 41 40 40 40 40 39 39 39 38 36 35 34 32 31 29 27 26 24 22 21 20 20 19 19 19 18 18 18 18 19 20 21 22 23 24 25 26 26 27 28 29 30 32 33 33 33 35 36 36 36 37 39 41 42 43 44 45 45 46 47 48 49 50 51 51 51 53 54 55 55 56 55 55 55 55 55 54 53 53 53
38 39 40 41 41 42 42 42 41 41 40 40 39 40 40 38 37 36 34 33 32 31 29 28 26 25 23 22 20 19 19 18 18 19 19 19 19 20 20 21 22 23 23 25 25 26 27 28 29 31 32 32 32 34 35 35 35 36 36 38 40 41 42 43 43 44 44 45 46 48 49 49 48 49 51 52 52 52 51 51 52 52 52 51 50 50 50
39 40 41 41 42 43 43 43 43 42 41 41 41 41 40 39 37 37 36 35 34 33 31 30 28 27 25 24 22 21 20 19 18 18 19 19 19 19 19 19 21 22 23 23 24 25 26 27 28 29 31 32 32 33 35 35 35 35 34 35 37 39 40 40 41 41 42 43 44 46 47 47 47 47 48 49 50 50 50 50 51 51 50 49 50 50 49
41 42 43 43 43 43 44 44 44 44 43 42 41 40 40 39 39 39 39 38 37 35 33 31 29 28 28 26 24 23 21 21 20 19 20 20 19 19 19 19 19 20 21 21 22 24 25 26 26 28 30 31 32 34 34 34 35 35 35 35 36 37 38 39 40 40 40 41 42 43 44 45 46 46 47 47 47 48 48 48 48 48 47 47 46 46 45
43 44 44 45 45 45 45 45 45 45 44 43 41 41 41 41 41 41 41 39 39 38 37 34 31 29 28 28 28 26 24 22 21 20 20 21 20 19 20 20 19 19 19 19 20 23 24 24 24 26 28 30 32 33 33 33 34 35 36 36 36 37 38 39 39 38 39 40 41 42 42 43 44 45 45 45 45 44 44 44 44 44 43 42 41 40 40
44 45 46 47 47 47 47 47 46 45 45 44 43 43 42 42 42 42 41 41 40 39 38 37 34 32 29 28 28 28 27 25 24 22 21 22 21 20 20 20 21 21 20 19 19 21 23 22 23 25 27 28 29 31 32 32 33 34 35 36 37 37 37 38 38 38 37 38 39 40 41 41 41 42 42 42 42 42 41 41 40 40 39 38 37 37 38
44 45 46 48 49 49 48 48 48 47 47 46 45 44 43 43 42 41 41 41 40 38 37 37 35 34 32 30 28 27 27 28 27 25 23 22 22 22 22 21 21 22 22 20 19 21 22 22 22 24 26 26 27 29 31 32 33 33 34 35 36 36 37 37 37 36 36 37 38 39 39 39 39 39 40 40 40 40 39 38 37 36 36 35 35 36 37
45 46 47 48 49 49 50 50 49 49 49 48 47 46 45 44 43 42 41 42 42 40 38 37 36 35 34 33 31 28 27 27 28 28 26 23 22 23 23 22 21 22 23 22 20 20 22 23 23 24 25 25 25 27 29 30 31 32 33 34 35 35 35 36 36 35 36 37 37 37 37 37 38 38 39 39 39 38 37 36 35 34 34 34 35 35 36
47 47 48 48 48 49 50 51 50 50 49 50 49 48 46 44 44 43 41 41 43 43 41 39 38 37 36 35 35 33 30 28 27 28 28 27 25 24 25 25 23 23 24 25 23 20 20 22 24 25 25 25 26 26 27 28 30 31 32 33 33 34 34 34 34 35 36 36 36 35 36 36 37 37 37 37 37 36 34 33 33 32 33 33 33 34 34
48 49 48 49 49 50 50 51 52 51 50 50 51 50 48 46 44 43 42 39 40 41 41 40 38 38 37 35 35 35 34 31 29 28 28 28 27 25 25 26 25 24 24 25 26 24 22 21 23 24 24 24 26 27 27 27 29 30 31 31 32 32 33 32 32 34 35 35 35 34 35 36 36 36 36 35 34 33 32 31 31 31 31 31 32 32 31
49 49 49 50 51 51 51 52 53 53 52 52 52 52 50 48 45 44 43 41 39 40 41 41 39 38 38 37 36 36 35 34 31 30 29 29 28 27 25 25 26 26 24 24 25 26 25 23 23 24 24 24 25 26 28 28 28 29 30 31 31 31 31 31 31 33 34 33 33 33 34 35 35 35 34 33 32 30 29 29 29 29 29 30 30 29 29
50 50 51 51 52 53 52 52 54 55 54 54 54 53 52 49 46 44 43 43 40 39 40 41 40 39 38 38 37 37 36 35 32 31 30 29 29 28 27 26 26 27 26 25 24 26 26 24 23 24 25 25 25 25 26 28 28 28 29 30 29 29 29 29 30 31 32 32 32 32 33 33 33 33 32 30 29 28 27 27 27 27 27 27 27 27 27
50 51 53 53 53 53 54 54 55 56 56 56 55 54 52 51 48 44 43 44 43 40 40 41 41 40 40 40 39 39 38 37 34 32 30 30 30 30 29 28 27 27 28 27 25 25 26 26 24 23 24 26 27 26 26 27 27 28 29 29 29 28 27 27 28 29 30 30 30 30 31 31 31 31 30 28 27 26 25 25 25 25 25 26 25 25 25
50 52 53 54 54 55 56 56 56 57 57 56 56 55 54 51 48 44 41 42 44 42 40 40 40 40 40 40 40 39 39 38 36 33 32 31 30 30 30 29 28 28 28 28 26 25 26 27 26 24 23 25 27 26 26 26 27 28 28 28 28 27 26 26 27 27 28 28 28 29 29 30 29 28 28 27 25 24 24 24 24 24 24 24 24 24 24
51 52 54 55 56 56 57 57 57 57 57 57 56 56 54 52 49 45 41 41 42 42 40 38 38 38 38 38 38 38 38 38 36 34 33 32 31 30 29 29 28 28 29 29 28 26 26 27 28 25 23 25 27 27 26 26 27 27 28 28 27 26 25 25 25 25 26 27 27 27 27 28 28 27 26 25 23 23 23 23 23 23 23 23 23 23 22
53 53 54 56 57 57 57 57 58 58 58 58 57 56 55 53 50 47 43 42 42 42 41 40 39 39 38 38 38 37 38 38 37 35 33 32 32 31 30 29 27 27 28 29 29 28 27 27 28 26 23 23 26 27 26 26 26 27 27 27 26 26 25 24 23 24 25 26 25 25 26 26 26 25 24 24 22 21 21 22 22 22 22 21 21 21 21
53 54 56 57 58 58 57 58 58 59 59 58 57 56 55 53 50 47 45 43 42 42 41 40 39 39 40 40 39 38 37 37 37 37 35 33 32 32 32 31 29 27 28 28 29 28 27 27 29 28 25 23 25 27 26 25 26 27 27 26 26 25 24 24 23 23 23 24 24 24 24 25 25 24 23 22 21 20 21 21 21 21 20 20 20 20 20
54 55 57 58 59 58 58 59 59 60 60 59 58 56 55 52 50 47 45 43 42 42 41 39 38 39 40 40 41 40 38 36 36 36 36 34 33 32 33 32 30 29 28 28 28 28 28 27 28 29 28 25 25 27 27 25 25 26 26 26 25 25 24 23 22 22 22 23 23 22 23 24 24 23 22 21 21 20 20 20 20 20 20 20 20 20 20
57 57 58 59 59 58 58 59 61 61 61 60 59 57 55 52 50 47 45 44 43 43 42 40 38 39 41 41 41 41 40 38 36 36 35 34 33 33 33 32 31 29 29 29 28 28 28 27 28 29 29 27 26 27 27 26 26 26 26 26 25 25 24 23 23 22 21 21 21 22 22 22 23 22 21 21 20 20 19 20 20 20 19 19 19 19 19
60 59 59 59 59 58 58 59 60 61 61 60 59 57 55 53 50 46 44 43 44 44 42 40 38 39 42 42 42 41 40 38 37 37 36 34 33 33 33 33 31 30 29 29 28 28 29 28 28 28 29 28 27 27 27 26 26 26 26 25 25 25 24 23 23 22 21 21 21 21 21 21 22 22 21 20 20 20 19 19 19 20 20 19 19 19 19
62 61 61 60 59 59 59 60 60 60 61 60 59 57 55 52 50 46 44 42 43 43 43 41 39 39 41 43 44 44 42 40 39 38 37 35 33 32 33 33 32 31 30 29 28 28 28 28 28 28 28 27 27 27 27 27 26 26 25 25 25 25 25 24 23 22 21 21 20 20 20 20 21 21 21 20 20 19 19 19 19 20 20 20 19 19 18
63 63 63 62 59 59 60 61 61 61 61 61 59 57 55 52 49 46 43 42 41 42 42 42 41 40 41 42 43 43 43 41 40 39 38 36 34 33 33 32 32 31 31 29 28 28 28 27 27 28 28 27 26 26 26 27 26 26 25 25 25 25 25 24 23 22 22 21 21 20 20 20 20 21 21 21 20 19 19 19 19 19 20 20 20 19 19
Wind_Direction
276 275 274 273 272 271 271 270 270 269 267 266 266 266 264 262 262 261 259 258 257 256 254 252 250 248 247 247 248 248 250 250 250 250 250 248 246 248 249 249 249 250 251 251 252 253 254 255 257 258 259 260 260 259 259 260 259 259 259 260 260 259 258 257 259 262 263 264 263 262 261 261 262 264 265 265 266 266 267 267 267 267 268 267 266 267 267
277 276 275 274 273 272 271 270 269 268 267 265 264 263 262 261 259 259 258 257 256 256 254 252 251 249 248 247 248 249 250 251 251 251 251 249 248 248 250 251 251 252 252 251 251 251 252 253 254 255 256 258 259 260 261 261 261 260 259 259 259 259 259 259 260 261 263 263 262 262 263 264 266 267 267 266 266 265 265 265 265 265 266 266 267 268 267
278 277 276 274 273 271 270 269 268 267 266 264 262 261 260 259 258 257 257 257 256 255 253 251 250 249 248 247 247 248 249 250 250 250 250 250 249 248 249 250 249 249 249 250 250 251 252 252 253 253 254 256 257 259 261 262 263 264 262 261 260 261 261 261 260 260 261 261 262 263 264 265 265 264 264 264 265 265 265 265 265 266 267 268 269 269 268
280 278 277 275 273 271 270 268 267 266 265 263 262 260 258 257 256 256 255 254 253 253 251 250 249 249 249 249 248 249 250 250 250 250 251 251 250 249 249 249 248 248 250 251 251 252 253 254 254 254 254 256 257 258 260 263 264 265 265 265 264 264 263 261 260 260 260 260 261 263 263 263 263 263 263 264 265 266 266 266 266 266 266 267 267 266 266
282 281 279 276 274 272 269 267 265 264 263 262 260 258 257 256 255 253 252 251 251 251 251 251 250 249 249 249 249 249 249 250 251 250 251 251 251 250 249 249 250 250 250 251 251 252 254 255 255 256 257 258 260 261 262 263 264 265 266 266 265 264 264 263 262 261 260 261 262 263 263 263 263 263 264 264 265 264 263 263 264 264 264 264 265 265 266
286 284 281 279 276 273 270 267 264 262 261 260 259 257 256 255 253 251 250 249 250 250 251 250 249 248 248 247 247 247 248 249 251 251 251 251 251 251 251 250 251 251 251 253 255 254 256 258 260 262 261 261 263 264 263 262 262 263 264 264 263 263 264 265 264 263 262 262 262 263 264 264 263 263 263 264 263 261 260 261 262 263 265 265 264 265 265
290 287 285 282 279 276 272 268 264 261 260 259 257 256 255 254 252 251 249 248 248 248 249 249 248 248 247 247 248 248 249 250 251 252 252 252 253 253 252 251 253 255 255 255 256 257 259 262 264 264 263 263 263 262 260 259 259 260 261 262 263 263 263 263 264 264 263 262 262 262 262 262 263 263 263 263 262 262 262 263 262 262 262 263 263 263 262
295 292 289 285 282 278 274 270 266 262 259 258 256 255 254 253 251 251 249 248 246 246 247 248 248 248 248 248 249 249 249 249 250 252 253 253 253 254 254 254 256 257 256 254 255 256 257 258 260 260 260 260 260 260 259 258 257 258 258 259 260 261 261 261 261 261 261 261 261 260 261 262 263 264 264 263 263 263 263 262 261 260 260 260 261 262 262
302 300 295 291 285 280 276 273 269 264 260 257 256 255 254 252 251 250 249 248 247 246 246 248 249 250 249 249 249 249 248 249 251 253 254 253 254 255 257 256 255 255 255 255 255 254 253 254 255 256 256 257 257 258 260 260 256 255 256 257 257 258 260 260 259 258 259 259 259 260 262 263 264 263 263 263 263 262 262 261 261 261 261 261 262 262 263
310 307 303 298 292 285 280 276 272 268 263 258 255 254 253 252 251 250 250 250 248 247 248 248 249 249 248 248 249 249 249 251 252 254 255 255 254 254 254 253 252 253 253 254 254 253 251 251 252 253 255 256 257 258 259 260 259 256 255 255 256 256 259 260 259 259 259 259 260 261 262 263 262 261 261 261 261 262 263 264 264 263 263 263 263 263 263
318 315 311 306 301 294 288 281 276 272 267 262 257 255 253 252 251 251 251 251 250 248 247 247 248 249 249 249 249 250 250 250 251 253 254 254 252 250 250 251 251 252 252 253 254 253 252 251 252 254 256 258 259 260 260 260 260 259 258 257 255 255 256 257 258 260 261 261 262 262 262 261 260 259 260 260 261 262 263 264 264 264 264 263 262 262 263
326 324 321 315 309 303 297 290 283 276 271 267 262 257 254 253 252 252 251 250 250 249 248 248 248 248 249 248 249 250 250 249 250 251 253 254 253 251 250 251 254 255 255 255 255 254 254 255 255 257 259 260 261 261 261 261 261 261 260 258 257 255 255 256 257 259 261 262 262 262 262 261 260 259 261 262 261 261 262 263 263 263 265 265 264 264 265
331 331 330 325 318 311 305 299 292 284 276 271 267 262 258 255 253 252 251 250 251 251 249 249 249 249 249 249 250 250 251 251 251 252 253 254 254 254 252 252 254 256 255 255 255 255 255 255 256 257 258 259 260 261 261 261 260 260 260 260 259 257 257 257 258 259 259 260 260 261 261 261 260 260 261 262 262 261 260 262 263 264 265 267 267 267 268
336 336 336 334 329 321 313 307 301 294 286 278 272 267 262 258 255 253 252 251 251 252 251 250 249 249 250 250 250 251 251 251 251 251 252 253 254 254 253 252 253 254 255 255 256 256 255 255 255 256 257 258 259 259 260 260 260 261 261 261 261 260 260 260 260 260 259 259 259 260 260 260 261 261 261 261 262 262 262 262 263 265 266 268 268 269 269
341 341 341 341 340 333 325 316 310 304 297 288 280 273 268 263 258 255 252 251 251 251 251 250 250 250 250 250 250 250 251 251 251 251 252 253 254 254 254 253 253 254 255 256 256 256 256 255 255 255 256 257 258 258 259 260 260 261 261 263 263 263 262 263 262 262 261 260 260 260 260 260 262 263 263 262 262 262 262 263 264 265 266 268 269 270 270
346 346 347 347 347 344 338 328 320 313 307 299 291 283 275 270 264 260 255 253 251 251 251 251 251 251 251 251 251 251 251 251 251 251 252 252 254 255 255 253 252 252 253 254 256 256 256 256 255 255 256 257 257 258 258 259 260 261 262 263 264 264 264 264 264 263 262 261 261 261 261 262 263 262 262 262 261 262 263 263 264 265 266 267 269 270 270
352 352 352 352 352 351 349 342 333 324 316 310 302 294 285 278 272 267 262 257 255 253 252 251 251 251 252 252 252 252 252 251 251 252 252 253 254 255 254 253 252 253 253 254 256 257 258 258 257 256 256 256 257 258 259 260 260 261 262 262 263 264 265 265 264 264 263 263 263 263 263 263 263 262 262 262 262 263 264 264 265 266 267 267 267 268 269
357 357 357 357 356 355 355 353 347 338 328 320 313 305 297 289 281 275 270 265 261 258 255 254 253 252 252 253 253 253 253 253 253 254 254 254 254 255 255 255 254 255 255 256 256 257 258 258 258 257 257 257 258 258 259 259 260 260 261 261 262 264 265 265 265 265 265 265 264 264 264 263 263 263 264 265 265 265 266 266 266 267 266 266 266 267 267
1 1 1 0 0 360 359 359 356 351 344 335 325 316 308 300 294 285 279 274 269 264 261 258 256 255 254 254 254 254 254 254 254 254 254 254 254 254 256 257 256 256 256 256 256 256 256 257 257 258 258 258 258 259 259 259 259 260 260 261 261 262 263 264 265 265 266 266 266 265 265 265 265 265 265 265 266 266 266 267 267 267 267 267 266 266 265
5 4 4 3 3 4 3 3 1 359 356 350 342 332 321 311 304 297 290 284 278 273 268 265 262 260 258 257 256 256 255 254 254 254 254 253 253 254 255 256 256 255 255 255 255 255 256 256 257 257 258 258 259 259 259 259 260 260 261 262 262 262 263 263 264 265 266 267 267 266 266 266 265 265 265 266 266 266 267 267 267 267 267 267 267 266 265
10 9 8 7 6 6 6 5 4 3 1 358 354 347 338 327 316 306 299 292 287 282 278 274 270 267 264 262 260 259 258 257 256 255 254 253 253 253 253 253 253 253 253 254 254 255 255 256 256 257 257 258 258 259 260 260 261 261 262 262 262 263 263 264 265 266 266 266 266 266 266 267 267 267 267 267 267 266 266 266 266 266 265 265 265 265 265
14 14 13 12 11 10 8 7 6 5 4 2 360 356 351 343 334 324 313 304 296 289 285 281 278 275 271 268 266 264 263 261 259 258 257 255 254 253 253 253 252 251 252 253 254 254 254 255 255 255 256 257 258 259 260 260 261 261 262 263 263 264 265 266 266 266 265 265 265 266 266 268 269 270 269 268 268 267 267 267 267 266 265 265 265 265 265
15 15 15 15 14 13 12 10 8 7 6 4 2 1 358 355 349 341 332 322 312 302 295 289 284 280 277 275 272 270 268 266 265 263 261 259 257 256 255 254 254 253 253 253 253 253 253 254 254 254 255 256 257 257 258 259 260 261 262 262 263 264 265 265 265 266 266 266 267 268 268 269 269 269 268 268 268 268 268 268 268 268 267 267 267 267 267
14 14 15 15 15 14 13 12 11 9 8 6 4 1 360 359 356 351 345 338 329 320 310 302 294 288 284 280 278 275 273 271 269 267 266 264 262 260 259 257 256 256 255 255 255 255 255 255 255 255 255 255 256 256 257 258 259 260 261 262 262 263 264 265 265 266 267 267 268 269 269 270 269 269 269 269 269 269 268 268 268 268 268 269 269 269 269
11 12 12 13 13 13 13 12 11 11 10 8 5 2 0 358 357 355 352 348 342 334 326 317 308 300 293 288 284 281 278 275 273 271 269 267 265 264 263 261 259 258 258 258 257 257 256 257 256 256 256 256 256 257 258 258 259 260 261 262 262 263 264 265 266 267 267 267 268 269 269 269 270 270 270 271 270 270 270 269 269 269 269 269 269 269 269
9 9 9 10 10 10 10 10 10 10 10 8 7 5 2 359 357 356 355 352 348 344 338 330 323 315 306 299 293 288 284 281 278 276 274 272 269 268 266 264 264 263 262 261 260 259 259 259 258 258 258 258 258 258 259 259 260 260 261 262 263 263 264 264 265 266 267 268 269 270 270 270 271 271 272 272 272 273 273 272 271 271 270 269 269 269 269
6 6 6 6 7 7 7 7 8 8 8 7 6 5 3 1 359 356 353 350 348 347 344 340 335 329 322 314 307 299 293 287 283 280 278 276 274 272 270 268 266 265 265 264 263 262 262 261 261 260 260 260 260 260 260 260 260 261 262 263 264 264 264 264 264 265 266 268 269 269 270 271 272 273 273 274 274 274 274 273 273 272 271 271 270 269 269
4 4 4 4 4 4 4 4 4 5 5 5 4 4 3 2 0 357 352 349 348 346 345 343 341 337 331 325 319 312 305 298 293 288 283 280 277 276 274 272 270 268 267 267 266 265 265 264 264 263 263 263 262 262 262 261 262 263 264 264 265 264 264 265 265 266 267 268 268 269 270 271 272 273 274 274 274 274 274 274 274 274 273 273 272 271 271
1 1 1 1 1 1 1 1 1 1 1 1 1 1 1 0 358 356 355 352 350 346 343 341 340 339 336 333 327 322 316 309 304 298 292 287 283 280 278 275 273 271 270 269 268 268 267 267 266 266 265 265 264 264 264 264 264 264 265 265 265 265 266 267 267 267 267 268 268 269 269 270 271 272 273 274 275 275 275 275 274 274 274 274 274 274 274
358 358 358 358 358 358 358 358 358 358 358 358 357 358 358 358 357 356 355 353 350 347 344 340 338 337 337 335 331 328 324 319 314 308 302 297 291 287 283 281 279 277 275 273 272 271 270 269 268 268 267 266 266 266 266 266 266 266 265 265 266 267 268 268 268 269 269 269 270 270 270 270 271 272 273 274 274 275 275 275 276 276 276 276 276 275 274
355 354 354 354 354 354 355 355 355 355 355 355 355 355 355 355 355 354 353 351 349 346 344 341 337 335 334 333 332 331 329 326 322 318 313 307 302 296 291 287 283 281 280 278 276 275 274 273 272 271 270 269 268 268 267 267 266 266 266 267 268 269 269 269 269 270 271 272 272 272 272 272 272 273 274 274 274 275 276 277 277 277 277 277 276 275 273
351 351 351 351 351 351 351 351 351 351 351 351 352 353 352 351 351 351 350 349 347 345 343 341 338 335 332 330 328 327 326 325 324 322 319 316 312 308 303 298 294 289 285 283 280 279 277 276 275 275 275 273 272 271 270 269 268 267 266 268 269 269 269 270 271 271 272 273 273 274 274 274 274 275 276 277 278 278 279 280 279 279 279 279 278 277 276
347 347 347 347 348 348 347 347 347 347 347 348 349 349 347 346 347 348 348 347 346 345 343 341 338 334 330 328 325 323 322 322 322 321 319 317 314 310 307 305 302 299 294 291 288 285 282 280 280 279 279 278 276 275 274 273 273 272 271 270 271 271 272 273 273 274 274 275 275 276 277 278 278 278 278 279 280 281 282 281 281 281 281 280 280 279 279
343 344 344 344 345 345 344 344 343 343 344 345 344 343 342 343 345 346 346 346 345 344 342 340 337 333 330 327 325 323 321 319 319 319 317 315 314 312 310 308 306 303 300 298 295 290 286 285 284 282 281 280 279 277 277 277 278 278 276 274 274 274 275 275 275 276 276 276 277 277 278 279 279 279 280 280 280 280 281 281 281 281 280 280 279 280 280
340 341 341 341 341 342 342 341 341 341 341 340 340 339 340 342 343 343 343 343 343 342 340 338 336 334 331 327 325 323 320 317 315 315 315 313 313 312 311 309 307 304 302 302 300 295 292 291 288 284 281 280 279 279 279 279 279 278 278 277 276 276 276 276 276 276 276 276 277 277 277 277 278 279 280 281 281 281 281 281 281 281 281 281 281 280 279
338 339 339 339 339 340 340 340 340 340 340 339 339 339 339 339 339 340 340 340 341 341 339 337 336 334 331 328 324 322 319 316 313 312 311 310 309 309 308 309 309 307 305 305 305 302 298 297 295 290 286 283 283 282 281 279 277 276 277 277 277 277 276 276 276 276 276 276 276 277 277 278 280 281 282 283 284 284 284 283 283 283 284 284 282 280 277
336 337 337 337 338 338 339 339 339 339 339 339 339 339 337 336 335 336 336 336 336 337 337 336 334 332 330 328 325 321 318 315 312 310 308 307 307 307 306 307 308 308 306 306 307 306 303 301 300 296 293 291 289 286 284 281 280 278 277 277 277 277 277 278 278 279 279 278 278 279 281 283 284 285 286 287 287 287 287 287 286 286 286 284 282 279 277
334 335 336 336 336 337 337 337 338 338 339 339 338 338 336 334 332 332 333 333 332 333 335 335 333 332 330 328 326 323 318 313 311 309 307 304 302 302 302 303 305 306 305 305 306 307 307 306 303 300 298 296 293 290 288 287 285 283 281 280 279 279 279 280 281 282 282 281 282 284 286 287 288 289 289 289 289 289 289 289 288 287 285 283 281 279 278
332 333 334 335 335 335 335 335 336 337 338 338 337 336 335 333 330 329 331 331 331 332 333 333 332 331 330 329 328 325 320 315 311 308 307 305 304 303 303 303 304 305 305 305 305 305 306 307 305 304 303 302 299 296 295 293 291 288 286 284 283 282 281 282 283 283 283 284 285 288 289 290 290 290 290 290 289 289 289 289 288 286 284 281 279 278 278
331 332 332 333 334 334 334 334 334 335 336 337 335 334 334 332 329 326 326 328 329 328 328 329 329 329 328 328 328 326 322 318 313 308 306 304 303 302 300 300 301 301 303 304 304 305 305 306 305 305 305 306 305 303 301 299 297 295 292 289 288 286 285 284 284 283 284 285 288 290 290 291 291 291 290 290 290 289 289 288 286 284 282 280 278 278 277
329 330 331 332 332 332 332 333 333 333 335 335 334 333 333 331 328 325 324 324 326 326 326 326 327 327 327 327 327 325 323 319 315 310 306 303 301 300 298 296 297 297 298 300 302 303 304 306 306 306 305 305 306 306 305 303 301 299 297 295 293 290 289 287 286 284 285 287 289 290 291 291 291 291 291 291 290 290 289 287 285 283 281 279 278 278 278
327 328 329 330 331 330 331 332 333 333 334 334 333 332 331 330 327 324 322 321 322 324 324 324 325 325 325 325 325 325 323 320 317 313 308 303 301 300 298 297 296 296 297 298 299 300 302 304 306 307 307 306 306 306 306 305 304 303 301 298 297 295 293 290 287 285 286 288 289 290 291 291 292 292 292 292 291 291 290 288 286 284 282 280 280 279 279
326 327 327 328 329 329 330 331 332 332 333 332 331 330 330 328 326 324 322 319 320 322 323 323 323 324 324 324 325 326 324 322 319 315 310 305 303 301 300 299 297 296 295 296 297 298 300 301 303 305 307 307 306 307 307 307 306 306 304 302 300 298 295 291 288 286 287 287 288 290 292 292 293 293 293 293 292 292 291 289 287 285 283 282 281 280 279
325 326 326 327 328 329 329 330 332 332 331 330 329 329 328 326 324 322 320 317 317 318 320 321 321 322 323 323 324 324 324 322 319 317 313 308 304 302 300 299 298 296 295 295 295 297 299 300 301 302 305 306 306 307 308 309 309 308 306 305 303 301 297 292 288 287 287 288 289 291 293 293 294 295 294 294 294 294 292 290 288 286 284 282 282 281 280
323 324 325 326 327 328 328 329 330 330 329 328 328 327 326 324 321 319 317 316 315 315 317 318 318 319 319 320 321 322 322 321 319 318 315 311 307 303 300 299 298 297 295 295 295 296 297 298 298 300 304 307 307 307 309 310 309 308 308 307 305 303 300 295 291 289 288 289 291 293 294 294 295 296 296 295 295 295 294 291 288 286 283 282 281 280 279
322 323 324 325 325 326 327 328 329 328 327 327 326 325 324 322 320 318 316 315 315 315 316 317 318 318 318 318 319 321 322 321 320 319 318 314 310 306 303 300 298 297 295 294 294 295 296 296 297 298 302 306 307 307 308 309 309 309 308 308 307 306 303 299 294 291 290 291 292 294 295 296 297 297 297 297 297 296 294 291 288 285 283 282 281 280 278
320 321 322 324 324 324 326 327 327 327 326 325 324 323 322 321 319 317 315 314 314 314 314 316 317 317 317 317 318 319 320 320 320 319 318 316 313 310 306 303 301 299 296 294 294 294 294 296 297 298 301 304 305 305 306 308 309 309 309 309 309 308 306 302 297 293 291 291 293 295 297 297 298 298 298 298 297 297 295 292 288 285 283 281 279 278 277
318 319 321 322 323 323 325 326 326 326 325 324 323 321 321 320 318 317 315 314 314 313 313 314 316 316 316 316 318 318 319 319 319 318 317 315 314 311 307 305 304 302 298 295 293 293 292 294 295 297 300 304 305 304 306 308 309 310 310 310 310 310 308 305 299 294 291 291 293 295 297 298 299 299 299 299 298 297 296 293 289 285 282 280 278 276 275
316 318 319 320 321 322 324 325 326 325 325 323 321 321 320 319 318 317 315 314 313 312 312 314 316 315 315 316 316 317 317 319 319 317 315 314 313 311 308 305 304 302 299 296 294 293 292 294 295 297 299 302 304 304 305 308 309 309 310 310 310 310 309 307 302 296 292 291 292 294 296 298 299 299 300 299 299 297 296 294 290 286 282 279 277 275 273
314 316 317 318 319 321 323 324 324 324 324 322 321 320 320 318 317 315 314 313 312 311 311 313 315 315 315 316 316 316 317 319 319 316 313 312 311 309 306 304 303 302 299 296 295 293 292 293 294 295 297 300 302 303 304 306 307 308 309 310 310 310 309 308 304 299 295 292 292 292 295 297 298 299 299 299 298 297 296 294 291 286 282 279 276 274 273
314 314 315 317 319 321 322 323 324 324 323 321 320 319 318 316 315 313 313 312 311 310 310 312 314 315 316 316 317 317 318 319 318 315 312 311 310 308 305 303 303 301 299 297 294 291 291 291 292 293 294 296 298 300 302 304 305 307 308 310 310 309 309 308 305 302 298 294 292 292 294 296 297 298 298 298 298 297 295 293 291 287 283 279 276 274 271
313 314 315 316 319 321 321 322 323 323 322 320 319 318 316 314 313 312 312 311 310 309 309 312 315 316 317 317 316 316 317 317 316 314 312 311 310 307 305 303 301 300 298 297 295 291 289 288 289 290 291 293 295 297 299 302 303 305 307 308 309 308 307 307 305 304 301 297 294 293 294 295 296 297 297 297 297 296 295 293 291 287 284 280 276 273 269
Height
10407 10406 10405 10404 10404 10403 10403 10402 10401 10402 10404 10404 10403 10403 10403 10403 10404 10404 10406 10407 10408 10410 10412 10413 10415 10417 10416 10416 10417 10417 10417 10419 10420 10421 10424 10427 10427 10428 10429 10431 10434 10437 10438 10439 10441 10441 10442 10444 10446 10446 10444 10443 10445 10448 10450 10452 10457 10464 10468 10470 10472 10473 10474 10475 10473 10473 10476 10477 10476 10474 10472 10471 10476 10481 10481 10481 10482 10483 10484 10485 10483 10481 10481 10482 10484 10485 10485
10397 10396 10395 10395 10394 10394 10393 10393 10392 10392 10393 10395 10395 10394 10394 10395 10397 10397 10398 10400 10401 10403 10404 10406 10408 10409 10409 10410 10411 10411 10412 10414 10414 10415 10417 10418 10421 10423 10424 10425 10429 10431 10431 10432 10433 10433 10435 10438 10439 10438 10436 10435 10437 10439 10440 10443 10448 10454 10459 10461 10462 10461 10464 10468 10469 10469 10469 10468 10465 10463 10463 10467 10474 10476 10473 10472 10473 10475 10476 10475 10474 10474 10472 10472 10475 10476 10475
10388 10386 10385 10384 10384 10383 10383 10383 10383 10382 10382 10384 10386 10386 10385 10386 10388 10390 10392 10393 10394 10395 10396 10397 10400 10400 10401 10403 10404 10405 10406 10407 10407 10409 10410 10411 10414 10417 10418 10420 10423 10423 10422 10424 10425 10426 10429 10430 10431 10431 10429 10427 10429 10432 10432 10435 10440 10444 10447 10450 10453 10452 10456 10460 10462 10462 10462 10460 10456 10455 10457 10462 10467 10465 10463 10463 10464 10466 10468 10466 10464 10466 10465 10466 10469 10467 10466
10377 10376 10375 10373 10373 10372 10372 10372 10372 10372 10372 10373 10375 10376 10376 10376 10379 10383 10385 10385 10385 10385 10386 10389 10391 10393 10394 10396 10398 10399 10400 10400 10401 10402 10402 10405 10408 10410 10412 10414 10415 10415 10416 10418 10419 10420 10422 10423 10424 10424 10423 10419 10421 10427 10428 10430 10434 10435 10436 10441 10444 10443 10446 10450 10452 10454 10455 10452 10449 10448 10450 10455 10457 10455 10456 10457 10458 10460 10460 10458 10457 10457 10458 10460 10460 10457 10458
10367 10366 10364 10363 10362 10362 10362 10362 10362 10361 10362 10363 10364 10365 10365 10368 10372 10374 10375 10375 10374 10375 10379 10382 10383 10385 10387 10389 10391 10392 10392 10392 10393 10395 10396 10399 10401 10402 10407 10409 10409 10409 10410 10411 10413 10415 10416 10417 10417 10418 10418 10413 10414 10421 10424 10426 10429 10428 10428 10433 10435 10433 10435 10439 10442 10445 10446 10445 10442 10441 10442 10446 10449 10449 10449 10450 10452 10453 10451 10449 10449 10447 10450 10454 10451 10449 10451
10358 10356 10354 10353 10352 10351 10351 10352 10352 10352 10352 10353 10354 10355 10356 10360 10363 10363 10364 10366 10367 10368 10371 10373 10375 10377 10379 10381 10382 10383 10384 10385 10385 10387 10390 10392 10393 10397 10402 10404 10402 10402 10404 10406 10408 10410 10412 10412 10412 10414 10412 10407 10409 10416 10418 10421 10423 10421 10421 10423 10424 10426 10427 10428 10432 10436 10437 10437 10437 10435 10434 10437 10440 10442 10443 10443 10443 10441 10440 10442 10443 10440 10442 10447 10444 10442 10444
10349 10347 10345 10344 10343 10342 10341 10341 10342 10343 10343 10344 10345 10346 10347 10351 10352 10352 10354 10358 10360 10361 10362 10363 10365 10368 10371 10373 10375 10376 10379 10379 10378 10379 10382 10385 10388 10392 10396 10398 10398 10398 10400 10402 10403 10406 10409 10409 10408 10408 10405 10401 10404 10408 10410 10414 10417 10416 10415 10414 10416 10419 10420 10420 10424 10427 10428 10428 10428 10428 10427 10427 10431 10434 10435 10434 10432 10431 10433 10436 10436 10434 10435 10437 10436 10434 10434
10341 10339 10337 10336 10334 10333 10332 10332 10332 10334 10334 10335 10336 10337 10339 10342 10343 10343 10345 10348 10351 10353 10353 10351 10355 10360 10364 10367 10368 10370 10371 10370 10370 10373 10376 10380 10383 10386 10390 10395 10395 10392 10392 10395 10398 10401 10403 10402 10400 10400 10397 10395 10397 10399 10401 10407 10411 10410 10407 10407 10411 10412 10410 10413 10418 10418 10419 10419 10418 10418 10418 10420 10425 10427 10425 10424 10424 10425 10426 10425 10425 10425 10425 10428 10428 10425 10423
10335 10332 10330 10329 10327 10325 10324 10323 10324 10325 10326 10327 10328 10328 10330 10332 10334 10334 10336 10339 10342 10344 10344 10345 10349 10354 10358 10360 10360 10361 10362 10363 10366 10368 10369 10373 10378 10382 10387 10389 10385 10382 10385 10389 10392 10394 10395 10394 10392 10390 10388 10387 10389 10392 10394 10398 10403 10403 10401 10402 10406 10405 10402 10405 10409 10410 10411 10411 10410 10410 10412 10415 10420 10418 10414 10414 10416 10416 10414 10414 10415 10415 10415 10419 10420 10417 10415
10330 10327 10324 10322 10320 10319 10317 10316 10316 10317 10318 10319 10320 10321 10322 10324 10325 10326 10328 10331 10335 10337 10339 10342 10343 10345 10348 10351 10351 10352 10355 10359 10362 10361 10361 10366 10373 10376 10379 10377 10373 10374 10379 10381 10383 10385 10386 10385 10383 10381 10380 10380 10383 10386 10388 10390 10393 10395 10395 10397 10400 10399 10397 10397 10399 10402 10404 10404 10403 10405 10406 10410 10411 10407 10405 10407 10408 10407 10405 10405 10405 10405 10406 10411 10411 10408 10408
10326 10323 10320 10317 10315 10313 10312 10311 10310 10310 10311 10312 10313 10314 10315 10316 10317 10319 10321 10324 10327 10329 10332 10334 10334 10337 10341 10343 10344 10345 10349 10354 10355 10352 10352 10357 10362 10366 10368 10367 10365 10368 10372 10372 10374 10375 10375 10376 10375 10374 10374 10375 10377 10380 10382 10383 10384 10385 10387 10390 10391 10393 10392 10389 10391 10395 10397 10398 10398 10398 10400 10403 10400 10396 10397 10401 10402 10401 10399 10396 10395 10395 10397 10402 10401 10398 10401
10323 10319 10316 10313 10311 10309 10307 10306 10305 10305 10305 10305 10306 10307 10308 10309 10311 10312 10315 10317 10318 10321 10325 10326 10328 10331 10332 10334 10336 10337 10340 10345 10346 10345 10345 10348 10351 10356 10361 10360 10359 10362 10365 10364 10364 10365 10367 10369 10370 10370 10371 10371 10372 10373 10375 10376 10376 10377 10378 10379 10382 10385 10384 10382 10385 10390 10392 10392 10391 10391 10394 10393 10389 10389 10393 10394 10395 10396 10392 10386 10386 10388 10389 10391 10391 10391 10395
10320 10317 10314 10311 10308 10306 10304 10302 10301 10300 10300 10300 10300 10301 10302 10303 10305 10306 10309 10310 10310 10313 10317 10319 10321 10323 10323 10325 10329 10330 10333 10337 10340 10339 10339 10340 10342 10346 10353 10355 10354 10355 10356 10354 10354 10357 10361 10363 10364 10364 10365 10364 10365 10366 10366 10367 10367 10368 10368 10369 10372 10375 10374 10375 10381 10384 10386 10386 10384 10385 10386 10383 10380 10384 10388 10386 10385 10387 10385 10379 10378 10382 10383 10382 10381 10383 10389
10318 10315 10312 10309 10306 10303 10301 10299 10298 10297 10296 10296 10295 10296 10297 10298 10299 10301 10303 10304 10304 10306 10310 10312 10313 10315 10317 10319 10322 10324 10326 10329 10331 10331 10330 10332 10333 10336 10343 10348 10348 10346 10346 10345 10346 10349 10353 10355 10357 10357 10357 10357 10357 10358 10358 10358 10359 10360 10359 10360 10362 10365 10365 10369 10374 10377 10378 10378 10377 10378 10378 10375 10374 10377 10380 10379 10377 10377 10376 10373 10372 10377 10378 10374 10374 10376 10380
10317 10313 10310 10307 10304 10302 10299 10297 10295 10294 10293 10292 10292 10292 10292 10293 10294 10295 10297 10297 10298 10300 10302 10304 10306 10308 10310 10312 10314 10316 10318 10320 10321 10322 10323 10325 10325 10327 10334 10341 10340 10338 10337 10337 10337 10340 10343 10346 10348 10349 10349 10348 10349 10349 10350 10351 10351 10351 10351 10352 10353 10355 10357 10361 10365 10367 10369 10369 10369 10370 10369 10367 10368 10369 10371 10372 10369 10367 10368 10366 10365 10370 10372 10368 10367 10369 10371
10316 10312 10309 10306 10303 10300 10298 10295 10293 10292 10291 10289 10289 10288 10288 10289 10289 10290 10291 10292 10292 10294 10295 10297 10299 10300 10302 10304 10306 10308 10310 10312 10313 10313 10315 10318 10318 10320 10327 10331 10329 10329 10329 10328 10328 10331 10333 10336 10339 10340 10341 10340 10340 10341 10342 10343 10343 10343 10345 10346 10344 10343 10347 10353 10356 10357 10358 10359 10359 10360 10359 10359 10361 10361 10361 10361 10360 10359 10360 10359 10359 10363 10365 10363 10361 10362 10361
10316 10312 10308 10305 10302 10299 10297 10295 10292 10290 10289 10287 10286 10286 10285 10285 10285 10285 10286 10286 10287 10289 10290 10291 10292 10293 10295 10297 10298 10300 10302 10304 10305 10305 10308 10311 10312 10313 10317 10318 10318 10320 10321 10321 10322 10323 10325 10327 10329 10331 10332 10331 10331 10332 10334 10336 10335 10334 10337 10338 10334 10333 10337 10342 10345 10345 10346 10348 10349 10349 10349 10349 10350 10349 10349 10351 10352 10352 10350 10350 10353 10356 10356 10355 10354 10353 10350
10316 10312 10308 10305 10302 10299 10296 10294 10291 10289 10288 10286 10284 10283 10283 10282 10282 10282 10282 10282 10283 10284 10285 10285 10286 10287 10288 10290 10291 10292 10294 10296 10297 10298 10302 10305 10305 10304 10304 10307 10311 10313 10313 10314 10316 10316 10317 10318 10319 10320 10321 10321 10322 10324 10326 10327 10325 10324 10326 10328 10326 10326 10328 10330 10333 10334 10335 10337 10338 10338 10337 10337 10338 10339 10339 10341 10343 10342 10340 10341 10345 10347 10345 10344 10345 10344 10341
10315 10312 10309 10305 10302 10299 10296 10293 10291 10288 10287 10285 10283 10282 10281 10280 10280 10279 10279 10279 10279 10279 10280 10280 10281 10282 10283 10283 10284 10285 10287 10288 10290 10292 10294 10296 10297 10296 10296 10300 10305 10306 10305 10306 10307 10307 10307 10308 10309 10311 10312 10312 10314 10315 10315 10315 10315 10315 10316 10317 10318 10318 10319 10320 10321 10323 10324 10325 10327 10326 10324 10324 10327 10329 10330 10331 10332 10331 10330 10332 10334 10334 10333 10334 10334 10333 10330
10315 10312 10309 10305 10302 10299 10296 10293 10290 10288 10286 10284 10282 10281 10280 10278 10278 10277 10276 10276 10275 10275 10276 10276 10276 10277 10277 10277 10278 10278 10279 10281 10282 10283 10285 10286 10288 10289 10289 10292 10296 10296 10294 10294 10295 10297 10298 10298 10300 10303 10304 10304 10304 10304 10303 10304 10305 10306 10307 10308 10309 10308 10309 10310 10312 10314 10316 10315 10313 10313 10312 10312 10315 10317 10318 10321 10322 10320 10320 10322 10323 10321 10321 10322 10321 10318 10316
10315 10312 10309 10306 10302 10299 10297 10294 10291 10288 10286 10283 10281 10280 10278 10277 10276 10275 10274 10274 10273 10272 10272 10272 10272 10272 10272 10272 10272 10272 10273 10274 10274 10275 10276 10278 10280 10280 10280 10283 10286 10285 10282 10282 10285 10288 10289 10288 10292 10295 10294 10293 10293 10293 10294 10295 10296 10296 10298 10298 10297 10297 10299 10301 10303 10306 10307 10303 10298 10299 10300 10299 10301 10305 10308 10309 10308 10308 10310 10311 10310 10308 10308 10308 10306 10303 10301
10315 10312 10309 10306 10303 10300 10297 10294 10291 10288 10286 10283 10281 10279 10277 10275 10274 10273 10272 10271 10270 10269 10269 10269 10268 10268 10267 10267 10267 10267 10267 10267 10268 10268 10269 10271 10271 10271 10271 10273 10275 10274 10273 10274 10276 10279 10279 10279 10283 10285 10283 10283 10284 10285 10286 10286 10285 10286 10288 10287 10286 10287 10291 10294 10292 10292 10294 10290 10286 10287 10290 10290 10291 10293 10294 10294 10293 10295 10298 10297 10294 10293 10293 10293 10292 10291 10290
10315 10312 10309 10306 10303 10300 10297 10294 10292 10289 10287 10284 10281 10279 10277 10275 10273 10271 10270 10269 10268 10267 10266 10266 10265 10264 10263 10263 10263 10262 10262 10262 10262 10262 10263 10263 10264 10264 10264 10266 10266 10266 10266 10266 10267 10269 10269 10270 10273 10273 10272 10274 10276 10276 10275 10275 10275 10276 10277 10278 10277 10277 10281 10283 10280 10279 10280 10278 10275 10276 10281 10282 10281 10278 10277 10278 10281 10283 10284 10281 10279 10279 10279 10279 10279 10279 10279
10315 10312 10309 10306 10303 10300 10297 10295 10292 10289 10287 10284 10282 10279 10277 10275 10273 10271 10269 10267 10266 10264 10263 10263 10262 10261 10260 10259 10258 10258 10258 10258 10257 10257 10257 10257 10257 10257 10258 10259 10258 10258 10258 10258 10259 10261 10260 10261 10263 10263 10265 10267 10266 10264 10264 10266 10267 10268 10266 10266 10268 10269 10269 10270 10269 10269 10269 10266 10265 10268 10270 10268 10266 10263 10263 10266 10269 10269 10269 10268 10267 10268 10268 10266 10266 10265 10265
10315 10312 10309 10307 10304 10301 10298 10295 10292 10289 10287 10284 10282 10279 10277 10274 10272 10270 10268 10266 10264 10263 10261 10260 10259 10258 10257 10256 10255 10254 10253 10253 10253 10252 10252 10252 10252 10251 10252 10252 10251 10251 10251 10251 10252 10253 10252 10253 10254 10255 10256 10257 10255 10255 10257 10258 10258 10258 10256 10255 10259 10261 10260 10259 10259 10259 10257 10254 10254 10259 10259 10255 10252 10251 10251 10253 10255 10255 10255 10256 10256 10257 10255 10254 10253 10252 10251
10315 10312 10309 10306 10304 10301 10298 10295 10292 10289 10287 10284 10282 10279 10277 10274 10272 10269 10267 10265 10263 10261 10259 10257 10256 10255 10254 10253 10251 10250 10249 10249 10248 10248 10247 10247 10247 10246 10246 10246 10246 10245 10245 10245 10245 10245 10245 10246 10246 10246 10247 10247 10246 10248 10250 10249 10248 10249 10247 10246 10249 10252 10253 10252 10250 10247 10244 10243 10245 10247 10246 10242 10241 10240 10240 10241 10242 10243 10243 10242 10242 10243 10242 10241 10240 10239 10239
10314 10312 10309 10306 10303 10301 10298 10295 10292 10290 10287 10284 10281 10279 10276 10273 10271 10268 10266 10265 10262 10260 10258 10256 10254 10252 10251 10250 10248 10247 10246 10245 10244 10244 10243 10242 10242 10241 10241 10241 10241 10240 10240 10239 10239 10239 10239 10239 10239 10239 10239 10239 10239 10240 10241 10240 10239 10239 10239 10239 10240 10242 10241 10240 10239 10237 10236 10236 10237 10237 10235 10232 10230 10229 10229 10230 10231 10231 10231 10230 10228 10228 10228 10228 10228 10227 10227
10314 10311 10308 10306 10303 10300 10297 10294 10292 10289 10287 10284 10281 10278 10275 10273 10271 10268 10266 10263 10261 10259 10256 10254 10252 10250 10249 10247 10246 10244 10243 10241 10240 10240 10239 10238 10237 10236 10236 10235 10235 10235 10234 10234 10234 10234 10233 10233 10232 10232 10232 10232 10232 10232 10232 10232 10232 10232 10232 10232 10231 10230 10229 10229 10230 10230 10229 10228 10228 10228 10226 10224 10222 10220 10219 10220 10220 10220 10220 10218 10217 10217 10216 10215 10216 10217 10217
10313 10310 10308 10305 10302 10299 10296 10294 10291 10288 10285 10283 10281 10278 10276 10273 10271 10268 10265 10262 10259 10257 10255 10253 10251 10249 10247 10245 10243 10241 10240 10238 10237 10236 10235 10234 10233 10232 10231 10231 10230 10229 10229 10229 10228 10228 10228 10227 10226 10226 10226 10226 10225 10225 10224 10224 10225 10226 10225 10224 10222 10220 10220 10221 10221 10221 10220 10220 10220 10219 10218 10216 10215 10213 10211 10210 10210 10210 10209 10208 10207 10207 10205 10205 10206 10207 10208
10312 10310 10307 10304 10302 10299 10296 10293 10290 10287 10284 10281 10278 10276 10273 10271 10268 10265 10263 10260 10258 10256 10253 10251 10249 10246 10245 10243 10241 10239 10237 10235 10234 10232 10231 10230 10229 10228 10227 10226 10225 10225 10224 10224 10223 10222 10222 10221 10220 10220 10220 10220 10219 10219 10218 10218 10219 10219 10218 10215 10214 10213 10213 10214 10213 10212 10211 10211 10211 10210 10209 10209 10208 10206 10204 10203 10202 10201 10200 10199 10198 10197 10197 10197 10197 10197 10197
10311 10309 10306 10303 10300 10298 10295 10292 10289 10286 10283 10280 10277 10274 10271 10269 10266 10264 10262 10259 10257 10254 10252 10249 10246 10244 10242 10240 10238 10236 10234 10233 10231 10229 10228 10226 10225 10224 10223 10222 10221 10220 10219 10219 10218 10217 10217 10216 10215 10214 10213 10214 10213 10212 10212 10212 10213 10212 10210 10209 10208 10207 10206 10206 10205 10205 10204 10203 10202 10201 10200 10200 10200 10198 10196 10194 10193 10192 10191 10191 10190 10189 10188 10188 10188 10187 10186
10310 10307 10305 10302 10299 10296 10293 10291 10288 10285 10283 10280 10277 10273 10270 10268 10266 10263 10260 10258 10255 10252 10250 10247 10244 10242 10240 10238 10236 10234 10232 10231 10229 10226 10225 10223 10221 10220 10219 10218 10216 10216 10215 10214 10213 10212 10211 10211 10210 10208 10207 10208 10207 10206 10205 10205 10205 10205 10205 10203 10202 10200 10199 10199 10198 10198 10197 10196 10195 10192 10191 10191 10191 10190 10188 10186 10184 10183 10183 10183 10181 10179 10179 10178 10178 10177 10176
10308 10306 10303 10300 10297 10294 10291 10289 10286 10283 10281 10277 10274 10272 10269 10267 10264 10261 10258 10255 10253 10250 10247 10244 10242 10239 10237 10235 10234 10232 10230 10228 10226 10224 10222 10221 10219 10218 10216 10214 10213 10211 10210 10209 10208 10207 10206 10205 10205 10203 10201 10201 10201 10199 10198 10198 10198 10198 10199 10197 10195 10193 10193 10192 10191 10191 10190 10189 10187 10185 10183 10183 10183 10182 10181 10179 10177 10176 10175 10173 10171 10170 10170 10170 10168 10167 10167
10306 10303 10301 10298 10295 10293 10290 10286 10284 10281 10278 10275 10272 10270 10267 10264 10260 10257 10254 10252 10249 10246 10244 10242 10239 10236 10234 10231 10230 10229 10227 10224 10223 10221 10219 10217 10216 10214 10213 10211 10210 10208 10207 10206 10204 10202 10201 10201 10200 10198 10196 10195 10194 10193 10192 10192 10191 10191 10191 10190 10189 10187 10186 10185 10184 10184 10183 10182 10180 10179 10177 10176 10175 10174 10173 10172 10171 10169 10168 10166 10164 10163 10163 10162 10161 10160 10160
10303 10301 10298 10295 10292 10290 10287 10284 10281 10278 10275 10273 10270 10267 10263 10260 10257 10254 10251 10249 10246 10243 10240 10238 10236 10233 10231 10228 10225 10224 10223 10221 10219 10218 10216 10214 10213 10211 10209 10207 10206 10205 10204 10202 10200 10198 10196 10196 10196 10194 10192 10190 10188 10187 10187 10187 10186 10184 10183 10183 10182 10181 10180 10178 10178 10178 10177 10175 10174 10173 10171 10170 10168 10167 10166 10165 10163 10162 10161 10159 10157 10156 10155 10155 10155 10154 10153
10301 10298 10295 10292 10289 10287 10284 10281 10278 10275 10273 10270 10266 10263 10260 10257 10254 10251 10248 10246 10243 10240 10237 10234 10231 10229 10227 10225 10222 10220 10218 10216 10215 10214 10212 10210 10209 10207 10206 10204 10202 10200 10199 10199 10197 10194 10193 10192 10191 10189 10187 10186 10185 10183 10182 10181 10180 10179 10178 10177 10176 10175 10174 10172 10171 10172 10171 10170 10168 10166 10165 10164 10163 10161 10159 10157 10156 10154 10153 10152 10151 10149 10149 10148 10147 10146 10144
10299 10296 10293 10289 10286 10283 10281 10277 10274 10272 10268 10265 10262 10259 10256 10254 10251 10248 10245 10243 10241 10239 10236 10232 10228 10226 10224 10222 10220 10218 10215 10212 10210 10209 10208 10207 10205 10203 10202 10200 10199 10196 10195 10194 10193 10191 10189 10188 10187 10184 10183 10182 10181 10178 10176 10175 10174 10173 10173 10171 10170 10169 10168 10166 10165 10165 10165 10163 10161 10160 10159 10158 10156 10154 10152 10150 10149 10147 10146 10145 10144 10143 10142 10141 10139 10138 10136
10296 10293 10290 10287 10283 10280 10277 10274 10271 10268 10265 10261 10259 10256 10253 10250 10247 10245 10242 10238 10235 10233 10231 10228 10225 10222 10219 10216 10215 10214 10212 10209 10207 10204 10203 10202 10201 10199 10197 10196 10195 10193 10191 10190 10189 10188 10185 10183 10182 10180 10179 10177 10176 10173 10171 10170 10169 10167 10166 10165 10164 10163 10161 10160 10159 10159 10157 10155 10154 10154 10152 10151 10149 10147 10145 10143 10142 10141 10140 10139 10138 10137 10136 10134 10132 10131 10129
10292 10289 10287 10284 10281 10278 10274 10271 10268 10265 10262 10258 10255 10253 10250 10247 10243 10240 10238 10235 10230 10226 10225 10223 10220 10218 10215 10212 10210 10208 10206 10205 10203 10200 10198 10197 10196 10195 10192 10191 10190 10189 10186 10184 10184 10184 10182 10180 10177 10175 10174 10172 10170 10168 10167 10165 10163 10162 10160 10159 10158 10157 10156 10155 10154 10152 10150 10148 10148 10148 10146 10145 10143 10141 10139 10138 10136 10135 10134 10134 10132 10131 10129 10128 10126 10125 10124
10288 10285 10283 10280 10278 10275 10271 10267 10264 10261 10259 10256 10252 10248 10246 10243 10239 10236 10234 10232 10229 10224 10221 10220 10217 10214 10211 10209 10206 10203 10201 10200 10198 10196 10194 10192 10191 10190 10189 10186 10185 10184 10183 10180 10178 10177 10177 10176 10174 10171 10170 10168 10165 10163 10162 10161 10158 10156 10155 10153 10152 10151 10150 10149 10148 10146 10144 10143 10143 10142 10140 10139 10137 10135 10133 10132 10131 10130 10129 10128 10127 10125 10124 10122 10120 10120 10119
10283 10281 10278 10276 10273 10270 10267 10264 10260 10256 10254 10251 10247 10244 10241 10238 10235 10232 10228 10226 10225 10222 10217 10215 10213 10210 10207 10205 10202 10199 10196 10195 10193 10191 10190 10188 10186 10185 10184 10183 10181 10180 10179 10177 10175 10173 10172 10171 10169 10167 10165 10164 10162 10159 10157 10155 10154 10152 10149 10148 10147 10145 10144 10143 10142 10140 10138 10138 10137 10136 10135 10133 10131 10129 10128 10127 10126 10125 10124 10123 10121 10119 10118 10116 10115 10115 10115
10278 10276 10273 10271 10268 10265 10263 10260 10256 10252 10249 10246 10242 10239 10237 10233 10230 10227 10223 10220 10219 10217 10214 10210 10208 10206 10203 10200 10198 10195 10192 10190 10188 10186 10184 10183 10181 10180 10179 10178 10177 10175 10173 10173 10171 10169 10167 10166 10165 10163 10160 10158 10158 10156 10153 10151 10149 10147 10145 10143 10141 10140 10139 10138 10136 10134 10133 10133 10132 10131 10130 10128 10126 10124 10123 10122 10121 10120 10119 10117 10115 10114 10113 10112 10111 10111 10110
10274 10271 10268 10266 10264 10260 10257 10255 10251 10247 10243 10240 10237 10234 10232 10228 10225 10222 10219 10214 10212 10211 10209 10205 10202 10200 10197 10194 10192 10189 10186 10184 10183 10181 10180 10178 10176 10174 10173 10173 10172 10170 10168 10167 10166 10165 10163 10161 10160 10159 10157 10154 10152 10151 10149 10147 10145 10142 10140 10138 10137 10136 10134 10133 10131 10129 10129 10128 10128 10126 10125 10123 10121 10120 10118 10117 10116 10115 10113 10112 10111 10110 10108 10107 10107 10107 10106
10270 10267 10263 10260 10258 10255 10252 10249 10246 10242 10238 10235 10231 10229 10226 10223 10220 10218 10215 10211 10207 10205 10205 10202 10198 10195 10193 10190 10187 10185 10182 10180 10178 10176 10175 10173 10172 10170 10169 10167 10166 10165 10163 10162 10161 10160 10158 10156 10154 10154 10153 10150 10148 10146 10145 10143 10140 10138 10136 10134 10132 10131 10130 10128 10127 10125 10124 10124 10123 10122 10120 10118 10116 10115 10114 10112 10111 10110 10109 10107 10106 10105 10104 10103 10103 10103 10102
10265 10262 10259 10255 10253 10250 10247 10244 10241 10238 10234 10230 10227 10224 10221 10218 10215 10213 10211 10208 10203 10200 10199 10197 10195 10192 10189 10187 10184 10182 10179 10176 10173 10172 10170 10168 10166 10166 10164 10163 10162 10160 10158 10157 10156 10155 10154 10152 10149 10149 10148 10146 10143 10141 10140 10138 10136 10134 10132 10130 10128 10127 10125 10124 10122 10121 10120 10119 10118 10117 10116 10114 10112 10111 10109 10108 10107 10106 10105 10103 10102 10101 10100 10100 10099 10099 10099
10259 10257 10254 10251 10248 10245 10242 10239 10236 10232 10228 10225 10222 10218 10215 10212 10208 10206 10204 10202 10198 10195 10192 10191 10188 10186 10183 10181 10179 10177 10174 10171 10168 10167 10166 10164 10161 10160 10158 10158 10157 10156 10154 10152 10151 10150 10149 10147 10144 10143 10144 10142 10139 10137 10135 10134 10132 10130 10128 10126 10124 10122 10121 10120 10118 10117 10115 10114 10114 10113 10111 10109 10108 10107 10105 10104 10103 10102 10101 10099 10098 10098 10097 10096 10096 10095 10095
10254 10251 10249 10246 10243 10240 10237 10234 10230 10226 10223 10219 10216 10213 10210 10206 10203 10200 10198 10196 10193 10190 10187 10185 10183 10180 10177 10175 10173 10171 10170 10167 10164 10162 10160 10159 10157 10155 10152 10151 10151 10151 10149 10147 10146 10145 10144 10142 10139 10138 10138 10138 10136 10133 10131 10129 10127 10125 10123 10122 10120 10118 10117 10115 10114 10113 10112 10110 10109 10109 10107 10105 10104 10103 10102 10101 10100 10099 10097 10096 10095 10094 10094 10093 10093 10092 10092
10249 10247 10244 10241 10238 10235 10232 10228 10225 10221 10217 10213 10210 10207 10204 10201 10197 10195 10192 10190 10187 10184 10182 10180 10178 10175 10172 10169 10167 10165 10164 10163 10161 10158 10156 10154 10152 10150 10148 10146 10145 10145 10144 10142 10141 10140 10139 10137 10135 10133 10132 10132 10131 10128 10126 10125 10123 10121 10119 10117 10116 10115 10113 10111 10110 10109 10108 10107 10106 10105 10103 10101 10100 10099 10098 10097 10096 10095 10094 10092 10091 10091 10090 10090 10089 10089 10089
10243 10241 10240 10237 10233 10230 10227 10223 10219 10215 10211 10207 10204 10201 10198 10195 10191 10189 10186 10184 10181 10178 10176 10174 10173 10170 10166 10164 10162 10160 10158 10157 10156 10154 10151 10149 10147 10145 10143 10141 10140 10139 10138 10137 10136 10134 10133 10132 10131 10128 10127 10126 10125 10123 10121 10120 10118 10116 10114 10113 10111 10110 10109 10108 10106 10105 10104 10103 10102 10101 10100 10098 10096 10095 10094 10093 10092 10091 10090 10089 10088 10087 10087 10087 10086 10086 10086
10236 10235 10234 10232 10229 10226 10222 10219 10214 10210 10206 10202 10198 10195 10192 10188 10185 10183 10181 10179 10175 10172 10170 10169 10168 10165 10161 10158 10156 10154 10153 10152 10150 10148 10145 10144 10142 10140 10137 10135 10134 10134 10133 10131 10130 10129 10128 10127 10126 10124 10122 10121 10120 10119 10117 10116 10114 10112 10110 10109 10107 10106 10105 10104 10102 10101 10100 10099 10098 10097 10096 10095 10093 10091 10091 10090 10089 10088 10087 10086 10085 10084 10084 10083 10083 10083 10083
10229 10227 10226 10225 10223 10220 10216 10212 10209 10205 10200 10195 10192 10189 10186 10183 10180 10177 10176 10174 10170 10167 10164 10163 10162 10161 10157 10153 10150 10147 10146 10145 10144 10142 10139 10138 10137 10135 10133 10130 10129 10128 10127 10126 10126 10124 10123 10122 10121 10120 10118 10118 10116 10114 10113 10111 10110 10108 10106 10105 10103 10102 10100 10100 10098 10097 10096 10095 10094 10093 10092 10091 10090 10088 10087 10086 10085 10084 10084 10083 10082 10081 10080 10080 10080 10080 10080
10222 10220 10217 10215 10215 10213 10209 10205 10201 10198 10193 10189 10185 10182 10179 10176 10174 10172 10171 10169 10165 10162 10159 10158 10156 10155 10153 10150 10146 10143 10141 10139 10137 10135 10133 10132 10131 10129 10127 10125 10124 10122 10121 10120 10120 10119 10118 10117 10116 10115 10113 10113 10112 10111 10109 10107 10105 10104 10103 10101 10100 10098 10096 10095 10095 10093 10092 10091 10090 10090 10089 10088 10086 10085 10084 10083 10082 10081 10080 10079 10079 10078 10077 10077 10076 10076 10076